CAPE
0 0 25 9 0 83 689 654 295 148 68 2 0 0 6 227 2004 3146 3126 2669 2714 2145
1 3 0 25 9 18 479 430 445 535 146 90 126 1240 1640 2113 2879 3242 3029 2854 2304 2479
0 0 3 16 16 7 11 70 453 362 557 1884 2076 2631 3198 3429 3317 3235 2929 2664 2441 1909
0 0 0 0 6 5 80 329 389 48 1033 1418 2933 3307 2984 3409 3310 3022 2766 2461 1900 2398
0 0 0 0 0 31 40 342 527 877 729 1423 1099 2799 3005 3325 3226 3047 2545 1960 2171 2289
0 0 0 0 0 0 3 59 407 945 1217 1731 2136 2274 3052 3424 3234 2348 2189 2486 2277 2424
19 9 0 40 7 0 0 23 342 822 1229 1717 1711 2203 3056 3315 2830 1985 2587 2469 2528 2386
50 28 13 0 0 0 0 76 204 508 1057 1254 1789 2076 2773 2773 2532 2398 2490 2553 2609 2325
52 20 37 6 89 0 0 4 299 610 875 1195 1475 2032 2250 2436 2583 2583 2514 2395 2173 1512
41 97 37 37 30 77 232 95 63 902 995 1102 1787 1675 1589 2345 2522 2660 2417 2188 1858 1301
23 51 51 31 111 89 97 42 674 783 1483 1465 2036 1502 1501 2162 2426 2209 1883 1943 1725 1383
0 59 122 55 141 187 146 214 477 1246 1808 1557 1457 1215 1583 2133 1992 1777 1795 1607 1497 1085
64 122 152 153 255 200 262 526 644 1167 1849 1833 1506 995 1524 1735 1775 1575 1251 955 592 512
96 236 160 273 336 432 325 664 463 1274 1656 1801 1342 803 835 1030 1280 954 886 729 674 272
CIN
0 -24 -189 -265 -28 -233 -120 -176 -186 -260 -289 -68 0 0 -213 -219 -1 -7 -35 -81 -54 -104
-257 -260 -32 -206 -181 -204 -70 -70 -96 -103 -108 -188 -214 -123 -110 -5 -2 -2 -16 -82 -82 -76
0 0 -180 -175 -260 -88 -59 -194 -108 -118 -91 -2 -6 -11 -9 -2 -4 -2 -24 -69 -79 -109
0 0 0 0 -272 -253 -118 -97 -122 -160 -78 -47 -3 -8 -12 -4 -1 -8 -27 -70 -102 -49
0 0 0 0 0 -100 -134 -92 -99 -93 -102 -41 -48 -8 -6 -2 -8 -10 -42 -83 -49 -28
0 0 0 0 0 0 -183 -133 -86 -63 -58 -26 -22 -45 -2 0 -4 -12 -50 -34 -44 -20
-6 -6 0 -37 -48 0 0 -166 -74 -52 -43 -26 -21 -2 -2 -2 -11 -24 -7 -22 -10 -8
-56 -9 -4 0 0 0 0 -96 -59 -58 -43 -43 -9 -1 -3 -4 -9 -5 -5 -6 -6 -7
-21 -120 -52 -20 -11 0 0 -115 -35 -32 -51 -47 -36 -1 -8 -16 -2 -3 -8 -10 -8 -20
-105 -20 -37 -18 -16 -10 -13 -16 -125 -5 -39 -44 -7 -12 -18 -16 -4 -5 -8 -8 -10 -29
-47 -5 -18 -25 -3 -17 -37 -33 -10 -10 -1 -19 -5 -26 -42 -27 -13 -12 -12 -12 -16 -10
0 -6 -13 -26 -7 -6 -30 -7 -7 -1 0 -15 -19 -84 -43 -33 -28 -19 -9 -16 -14 -16
-1 -8 -8 -10 -12 -14 -13 -5 -11 -4 -2 -6 -54 -161 -68 -34 -27 -18 -15 -14 -62 -46
-13 -2 -33 -20 -12 -4 -6 -7 -23 -3 -2 -30 -117 -197 -132 -74 -15 -28 -10 -11 -9 -98
Wind_Speed
36 34 36 36 37 37 33 34 29 24 20 28 29 28 23 16 18 13 12 11 14 13
30 29 35 35 37 36 36 37 36 31 26 23 24 18 17 18 14 13 12 16 12 14
30 31 32 33 34 37 40 41 42 36 35 24 18 16 16 16 16 15 16 15 13 13
31 31 32 34 37 37 36 35 35 38 37 35 23 19 19 19 18 16 17 16 15 14
32 31 32 31 34 37 39 38 36 32 33 32 32 28 25 23 19 18 17 16 14 14
32 34 35 36 35 36 39 40 39 37 32 34 32 26 24 23 20 19 16 13 12 13
36 36 38 38 38 37 38 40 40 38 34 32 31 27 20 18 17 18 13 13 12 13
37 36 40 43 43 41 40 40 40 40 37 32 28 22 16 13 13 14 12 12 13 13
43 39 38 41 43 43 41 42 42 41 37 35 31 22 14 12 11 13 12 13 12 13
41 41 37 41 43 45 41 40 41 44 39 38 29 22 14 13 13 13 12 11 11 12
39 39 36 39 41 45 45 44 40 43 41 41 33 21 14 13 13 13 14 13 11 8
52 44 41 40 42 44 46 45 43 42 42 42 26 18 14 12 14 14 13 11 8 5
39 43 42 40 40 44 47 43 41 43 41 28 23 17 13 13 13 13 12 7 7 6
49 45 43 46 44 44 45 43 43 42 33 25 19 16 13 12 11 6 6 6 6 9
Wind_Direction
274 273 272 274 273 272 274 273 274 278 238 233 264 245 245 250 226 256 265 289 304 306
283 281 275 275 272 275 276 273 273 279 259 244 225 248 253 245 257 267 280 306 296 307
284 281 280 277 276 274 272 273 274 279 280 268 249 249 254 262 276 274 291 299 303 305
285 283 281 278 275 275 274 274 276 274 276 276 268 258 257 269 273 271 286 296 299 303
285 283 282 282 280 276 273 273 273 274 273 272 269 271 271 268 272 273 280 286 297 301
282 280 281 280 281 279 274 271 269 270 272 270 270 267 267 269 266 272 271 281 289 300
281 279 280 281 279 277 275 269 267 267 270 271 270 268 264 263 262 271 263 280 288 299
281 281 279 278 275 275 273 269 265 263 265 268 269 266 252 252 258 264 268 281 292 301
283 278 279 275 273 270 270 266 262 260 261 263 265 262 231 239 256 268 271 283 293 307
275 278 275 273 271 267 266 265 259 255 255 256 260 260 228 231 261 269 273 281 293 305
270 274 277 273 270 264 261 259 257 251 250 250 256 252 231 233 259 267 277 284 293 295
259 267 272 275 271 264 256 254 253 247 245 244 250 241 228 238 261 269 279 290 294 287
263 261 268 272 270 260 250 248 247 242 240 242 240 231 219 244 258 269 281 291 307 306
253 259 263 258 255 248 244 243 239 235 236 234 229 231 221 245 257 247 270 285 299 310